RH
95 95 95 94 97 97 96 99 100 97 96 98 99 100 99 99 100 101 100 97 98 101 100 100 102 97 92 97 100 99 98 94 91 90 87 87 89 91 87 84 84 82 78 74 70 66 62 60 60 61 63 65 66 68 67 65 62 58 54 47 40 32 23 17 12 9 7 5 5 4 4 5 5 5 4 3 3 2 2 2 2 1 2 1 1 1 1 2 1 2 1 1 1 1 1 1 2
98 98 98 95 94 97 98 97 97 95 95 96 94 95 95 96 97 99 99 98 100 100 100 100 100 99 96 99 99 95 92 90 91 92 93 92 90 88 83 80 79 74 68 62 55 48 41 37 37 39 43 47 51 54 53 50 45 41 37 30 23 16 9 6 4 3 3 2 2 2 3 3 3 3 3 3 2 2 2 2 2 2 2 1 2 2 1 2 2 2 2 2 1 2 2 2 2
101 100 100 97 97 98 96 94 92 93 95 96 95 94 92 94 94 95 98 100 101 98 96 93 92 97 99 101 99 93 87 83 82 83 77 68 61 56 52 50 49 46 42 36 28 22 17 15 14 15 18 22 26 29 29 27 25 22 19 15 11 6 4 3 3 2 2 2 2 2 2 3 3 3 3 2 2 2 2 2 2 2 2 2 2 2 2 2 2 2 2 2 2 2 2 2 2
100 100 100 99 99 98 96 94 93 95 97 99 98 97 94 94 97 98 99 101 100 96 91 87 90 97 100 99 94 86 75 64 53 47 35 23 19 16 15 16 16 15 15 12 9 7 5 5 4 4 5 6 8 9 9 10 9 8 8 6 4 3 3 2 2 2 2 2 2 2 2 2 3 2 3 2 2 2 2 2 2 2 2 2 2 2 2 2 3 2 2 2 2 2 2 2 2
98 98 99 96 97 99 98 96 95 96 98 101 100 100 98 98 99 97 98 100 99 99 97 95 97 99 95 80 63 50 41 32 22 15 9 5 5 5 5 5 5 4 5 4 4 4 3 3 3 3 3 3 3 3 3 3 3 3 3 2 3 2 2 2 2 2 2 2 2 2 2 2 3 3 3 2 2 2 2 2 2 2 2 2 2 2 3 3 3 3 3 3 2 2 2 2 2
98 98 95 92 95 98 98 97 97 99 100 100 100 99 97 98 99 96 97 100 100 100 98 97 94 86 71 47 27 17 12 11 8 6 5 5 4 4 5 4 4 4 4 4 4 4 4 4 4 4 3 3 3 3 3 3 3 3 3 2 2 2 2 2 2 2 2 2 2 2 2 2 2 3 3 2 2 2 2 2 2 2 2 3 3 3 3 3 3 3 3 3 3 2 2 2 2
100 99 96 94 97 99 97 97 98 99 99 96 97 97 95 97 96 94 96 99 99 93 86 78 66 50 33 18 10 7 5 5 5 5 5 5 5 5 5 4 4 4 4 3 4 3 3 4 3 4 3 3 3 3 4 3 3 3 3 3 3 2 2 2 2 2 2 2 2 2 2 2 3 3 3 3 3 3 2 2 2 2 2 3 3 3 3 3 3 3 3 3 3 3 3 2 2
100 99 98 99 99 100 100 100 100 97 94 89 80 72 73 82 86 91 94 92 84 73 63 50 34 20 11 7 6 5 5 5 5 5 5 5 5 5 5 5 5 4 4 4 4 4 4 4 3 3 3 3 3 3 4 3 4 3 3 3 3 3 3 3 2 2 2 2 2 2 3 2 3 3 3 3 3 3 3 3 2 2 2 3 3 3 3 3 3 3 3 3 3 3 3 3 3
101 100 101 100 97 97 92 87 85 76 66 53 38 29 32 46 60 67 64 55 47 41 34 23 13 8 6 5 5 5 5 5 4 5 5 5 5 5 5 5 5 5 5 4 4 4 4 4 4 4 4 4 4 4 4 4 4 3 4 4 3 3 3 3 3 3 3 2 3 2 3 3 3 3 3 3 3 3 3 3 3 2 2 3 3 3 3 3 3 3 3 3 3 3 3 3 3
95 91 87 74 67 67 59 49 42 31 22 15 10 10 11 16 21 23 19 14 14 14 12 8 6 5 5 6 5 5 5 4 4 4 4 4 4 4 4 4 4 4 4 4 4 4 4 4 4 4 4 4 4 4 4 4 4 4 4 4 4 4 3 3 3 3 3 3 3 3 3 3 3 3 3 3 3 3 3 3 3 3 2 3 3 3 3 3 3 3 3 3 3 3 3 3 3
64 54 51 34 26 27 23 18 13 8 6 6 6 7 7 7 7 6 6 6 6 6 6 5 5 5 5 5 5 5 4 4 4 4 4 3 4 4 3 3 3 4 3 3 3 3 3 3 3 3 3 4 4 4 4 4 4 4 4 4 4 4 4 4 4 4 3 3 3 3 3 3 3 3 3 3 3 3 3 3 3 3 3 3 3 3 3 3 3 3 3 3 3 3 3 3 3
32 20 21 13 9 9 8 8 7 7 6 6 7 7 8 8 8 7 7 7 7 6 6 5 5 5 5 5 4 4 4 4 4 4 4 4 4 4 4 4 4 5 4 4 4 4 4 4 4 4 4 5 5 5 5 5 4 5 4 4 5 4 4 4 4 4 4 4 4 4 3 3 3 3 3 3 3 3 3 3 3 3 3 3 3 3 3 3 3 3 3 3 3 3 3 3 3
21 15 14 11 10 8 8 9 8 8 7 6 7 8 8 9 9 8 8 7 7 6 6 6 6 6 5 5 5 5 5 5 5 5 5 5 5 5 6 6 6 6 6 6 6 6 6 6 6 6 7 7 7 8 7 7 7 7 7 7 6 6 6 5 5 5 5 5 5 4 4 4 4 4 4 4 4 4 4 4 4 4 3 3 3 4 4 4 3 3 3 3 3 3 3 3 3
18 18 17 16 14 13 12 11 10 9 7 7 6 7 8 8 8 7 7 6 6 6 6 6 6 6 6 7 6 6 6 6 6 6 6 6 5 6 6 7 7 7 7 7 7 7 7 7 8 8 8 9 9 9 9 9 9 9 9 8 8 8 8 8 8 7 7 6 6 6 5 5 5 5 5 5 5 4 4 4 4 4 4 4 4 4 4 4 4 4 4 4 4 4 4 4 4
11 11 11 11 10 10 9 9 8 7 6 6 6 7 7 6 6 7 7 7 7 6 6 6 6 6 6 6 7 6 6 6 6 6 7 7 7 7 7 7 7 8 8 8 8 8 8 9 9 9 9 9 9 10 10 10 10 9 9 9 9 10 9 9 9 9 8 8 8 7 7 7 7 6 6 6 5 5 5 5 5 5 5 5 5 5 5 5 5 5 4 4 4 4 5 5 5
5 5 5 5 5 5 5 5 5 5 6 6 6 6 7 6 6 7 6 6 7 6 6 6 6 6 6 6 7 6 6 6 6 7 7 8 8 8 8 8 8 9 9 10 10 10 10 10 10 10 10 10 10 10 10 10 10 10 10 10 10 10 10 10 10 10 9 9 9 9 8 8 8 8 7 7 7 6 6 6 6 6 6 6 6 6 6 5 5 5 5 5 5 5 5 6 5
5 5 5 5 5 5 5 5 5 5 6 6 7 6 7 6 6 7 7 7 7 7 6 6 5 5 5 6 6 6 6 6 6 7 7 8 8 8 8 8 9 10 10 11 11 11 11 11 11 11 12 12 12 12 12 12 11 11 11 10 11 11 11 11 10 10 10 10 9 9 9 9 9 9 8 8 8 8 8 8 7 7 7 7 7 7 7 7 6 6 6 6 6 6 6 6 6
5 5 5 5 4 5 5 5 5 5 5 6 6 5 6 5 6 7 6 6 6 6 6 5 5 5 5 5 5 6 6 6 6 6 6 6 7 7 8 8 10 10 10 11 11 11 11 12 12 12 12 12 12 12 12 12 12 12 11 11 11 11 12 12 11 11 10 10 10 10 10 10 10 10 10 10 9 9 9 9 9 9 8 8 8 8 9 8 8 8 8 8 7 7 7 7 7
5 5 5 4 4 4 4 4 4 5 4 5 5 4 5 5 5 6 6 6 5 6 5 5 5 5 6 6 6 7 7 7 6 6 6 6 6 6 7 7 9 9 10 10 9 9 9 11 11 11 11 12 12 12 12 12 13 12 12 12 12 12 13 12 12 11 11 11 11 11 11 11 11 11 11 11 11 10 10 10 10 10 9 9 10 10 10 10 10 9 9 9 9 8 8 8 8
5 5 5 5 5 5 5 4 4 4 5 5 5 5 4 5 5 5 5 5 5 5 5 5 5 6 6 6 7 7 7 7 6 6 6 6 6 6 7 7 7 8 8 9 8 8 8 9 10 11 12 13 13 13 13 13 13 13 13 13 13 13 13 13 13 13 13 13 13 13 13 12 12 12 12 12 12 12 11 12 11 11 11 11 11 11 11 11 10 10 10 10 10 9 9 9 9
5 5 5 5 5 5 5 5 5 5 5 5 5 5 5 5 5 5 5 5 6 6 5 6 6 6 6 6 6 6 6 7 7 7 7 7 7 8 8 8 8 8 9 9 9 9 9 10 10 11 12 13 14 14 15 15 15 15 15 15 15 15 15 16 15 15 15 15 15 15 15 14 14 14 14 14 13 13 13 13 13 12 12 12 12 12 12 11 11 11 11 11 10 10 10 10 9
4 4 5 5 5 5 5 5 5 5 5 5 5 5 5 5 5 5 5 5 5 5 5 6 6 6 6 6 6 7 7 7 8 8 9 9 9 10 10 11 11 10 11 11 11 11 12 12 12 13 13 14 14 14 15 15 16 16 17 17 17 18 18 18 18 18 17 17 17 17 16 16 16 16 16 16 15 15 15 14 14 14 14 14 13 13 13 13 12 12 11 11 11 11 11 10 10
9 8 6 6 6 6 7 7 7 7 7 7 7 7 8 7 7 7 7 8 7 7 6 7 7 7 7 7 7 8 8 9 10 10 11 12 12 13 14 14 14 14 15 14 15 15 15 15 16 16 17 18 19 20 20 20 21 21 22 22 22 22 22 22 21 21 21 20 20 20 19 19 19 18 18 18 17 17 17 17 16 16 16 15 15 15 15 15 14 14 13 13 12 12 12 11 11
29 27 24 22 22 22 21 21 21 21 20 19 19 18 18 14 12 13 12 12 12 11 11 14 15 15 15 15 14 14 13 13 13 13 14 15 15 16 17 18 19 20 21 22 23 25 26 27 28 30 31 33 34 36 36 37 37 37 38 38 37 36 35 33 32 32 31 30 30 29 28 27 25 24 23 22 21 20 20 19 19 18 18 18 18 17 17 17 16 16 15 15 14 14 14 13 13
55 56 55 53 53 52 50 45 43 43 43 43 42 41 37 30 26 24 22 22 22 22 23 25 24 24 24 23 23 22 21 21 20 20 20 21 22 23 26 29 33 36 39 43 47 50 51 52 53 54 54 55 55 55 54 53 53 51 51 50 49 48 45 42 41 40 40 39 38 37 36 35 34 33 31 30 29 27 26 25 24 23 22 22 21 21 20 20 19 19 18 17 17 16 16 15 15
60 61 62 63 63 63 63 61 59 58 58 58 57 55 51 45 39 35 32 30 29 29 29 28 27 26 25 26 27 28 29 30 32 33 35 38 41 45 49 54 60 63 66 68 68 68 66 65 63 61 60 58 57 55 53 51 50 48 46 45 44 43 41 39 37 36 36 36 35 35 34 34 35 34 33 33 33 31 31 30 29 29 28 27 26 26 25 24 24 23 22 21 20 20 19 18 17
53 53 53 54 53 53 53 53 51 50 49 47 45 43 40 37 34 31 29 28 27 27 27 26 25 25 25 26 29 34 40 45 50 55 59 62 65 67 68 68 68 66 63 58 54 52 50 48 46 43 42 40 39 38 36 35 34 33 32 31 31 30 30 29 29 28 28 28 28 28 28 28 28 28 28 28 29 29 29 29 29 29 29 28 28 28 28 28 27 26 26 25 24 24 23 22 21
54 52 51 50 48 48 47 44 41 39 35 32 28 25 23 21 20 20 20 21 21 22 24 26 28 32 36 41 49 56 62 65 65 65 62 59 56 53 49 46 43 40 36 33 31 31 31 30 29 29 29 28 28 28 27 27 26 26 26 26 26 26 26 26 26 26 26 26 26 26 26 26 26 26 26 26 26 25 25 25 25 25 25 26 26 26 26 26 27 27 27 27 26 26 26 25 25
58 57 54 53 51 50 48 43 39 36 30 26 26 27 28 29 30 33 36 39 41 44 48 51 54 56 59 60 61 60 56 52 47 42 37 34 31 29 28 27 27 26 26 26 26 27 27 27 28 28 29 29 30 30 30 30 30 30 30 30 30 30 30 30 29 29 29 29 29 29 30 30 29 29 29 29 28 28 27 27 26 26 25 25 25 25 25 24 24 24 24 25 25 26 26 26 26
54 54 53 51 49 49 49 48 49 50 49 50 54 57 59 61 62 62 63 63 62 59 57 53 50 47 44 39 36 32 29 27 25 24 24 24 25 25 26 27 27 28 29 29 30 30 31 31 32 32 33 34 34 35 35 36 36 36 35 35 35 35 36 35 35 34 34 33 33 33 33 33 33 32 32 32 31 31 31 30 30 30 29 29 28 28 27 27 26 25 25 25 25 25 25 26 26
54 55 58 57 58 60 59 60 64 66 66 67 66 64 61 58 53 48 46 42 37 33 29 26 23 22 21 20 20 21 21 22 22 23 24 26 27 28 30 31 32 34 35 36 37 38 39 40 41 42 43 44 44 45 46 46 47 47 47 47 46 46 47 47 46 46 45 45 44 44 44 44 43 42 40 40 39 37 36 35 34 33 33 33 32 32 31 30 29 29 28 28 28 28 27 28 28
63 61 61 58 58 56 50 47 47 47 44 41 37 34 30 27 23 21 20 18 17 16 16 16 17 18 19 20 22 23 24 26 27 29 31 33 35 37 39 41 43 46 48 50 52 54 55 56 57 58 59 60 60 60 61 61 61 61 61 61 61 60 60 61 61 61 61 60 59 58 58 58 58 57 55 55 54 53 51 49 47 45 44 42 41 40 38 35 33 32 31 30 30 30 31 31 31
42 38 36 33 32 29 24 22 21 20 19 17 16 15 15 14 15 15 15 15 16 17 18 19 20 21 23 24 26 27 29 31 34 36 38 41 43 46 48 51 54 56 58 60 61 63 64 66 68 69 70 71 71 71 70 70 69 69 68 67 66 64 63 63 63 62 61 61 60 59 59 59 59 59 58 58 58 58 58 58 57 56 55 54 53 52 51 48 44 41 39 36 34 33 33 34 33
18 16 16 15 14 14 13 13 13 13 13 14 14 15 16 16 15 15 16 17 18 19 19 19 20 20 21 21 22 24 26 29 32 35 39 43 46 49 53 56 59 62 64 66 67 68 70 70 70 70 69 67 66 64 61 59 57 55 52 50 48 46 45 45 44 43 42 41 41 41 42 42 43 43 44 44 45 45 46 47 48 50 51 52 53 55 56 56 54 52 50 48 46 43 42 41 40
12 12 12 13 13 14 14 14 14 14 14 14 15 14 14 13 12 12 12 13 14 14 15 15 16 17 18 20 23 26 29 32 37 42 47 52 57 61 65 68 70 70 68 66 64 61 59 56 53 50 47 44 41 39 36 34 32 31 29 27 26 25 24 24 23 23 22 22 22 22 23 23 24 25 25 26 27 27 28 29 30 32 34 36 38 41 44 47 50 51 52 54 54 54 53 52 51
15 14 14 14 13 13 12 11 11 10 10 10 10 10 9 9 10 10 11 12 14 15 17 19 21 24 28 31 35 39 45 51 56 60 63 65 66 65 64 62 57 52 47 43 39 35 32 30 28 26 25 23 22 21 20 19 18 18 17 17 16 16 15 15 15 15 14 14 13 14 14 13 14 14 14 15 15 15 15 16 17 18 19 21 22 24 27 30 34 38 41 45 49 51 54 55 56
13 11 10 9 8 8 7 7 8 8 8 9 10 10 10 10 11 12 13 14 16 17 20 23 26 30 34 40 48 55 60 62 59 56 53 50 46 42 38 34 31 27 25 23 21 20 19 19 18 18 17 17 17 16 16 15 15 15 14 14 13 13 12 12 11 11 11 10 10 10 10 9 9 9 9 9 9 10 10 10 10 11 11 12 13 14 15 18 20 22 25 28 32 36 40 44 48
7 7 7 7 7 7 7 8 9 9 8 8 8 7 7 7 8 9 10 11 12 15 17 21 25 32 42 51 56 55 51 43 37 33 30 28 26 24 23 21 20 19 19 18 18 18 17 17 17 17 17 16 16 16 15 15 15 14 13 13 12 11 10 10 9 9 8 8 8 8 8 8 8 8 8 8 8 8 8 8 8 8 8 8 8 9 10 11 12 13 14 16 18 21 24 26 31
7 7 7 6 6 5 5 5 6 5 5 4 4 3 4 4 5 6 6 8 9 11 15 22 30 40 50 50 44 36 30 26 24 23 22 21 21 20 19 18 18 18 19 19 19 19 18 18 18 17 17 17 17 16 16 15 15 15 14 13 12 11 11 10 10 9 9 9 9 9 9 9 9 9 9 9 9 9 8 8 8 8 8 7 7 7 7 7 8 9 9 10 11 13 14 15 18
6 5 4 4 3 3 3 3 3 3 2 2 2 2 3 3 4 5 6 7 9 13 19 26 32 36 35 30 25 24 23 23 22 21 19 18 17 17 18 18 19 20 20 20 20 19 19 18 18 18 18 18 18 17 17 17 16 16 16 15 14 14 13 13 12 12 12 12 12 12 12 12 12 12 12 12 11 11 10 10 9 9 8 8 8 7 7 7 6 7 7 7 8 9 10 11 12
3 3 3 2 2 2 2 2 2 2 2 2 2 2 3 3 4 5 5 6 9 13 17 19 20 20 20 21 23 23 22 20 18 16 16 16 17 19 20 21 21 21 21 21 20 20 20 20 19 19 19 20 20 19 19 19 19 19 19 19 19 19 19 19 18 18 18 18 18 18 18 17 17 16 16 16 15 14 13 12 11 10 10 9 8 8 7 7 7 6 6 6 6 7 8 9 9
3 2 2 2 2 2 2 2 2 2 2 2 2 2 3 3 4 4 5 6 9 10 11 13 15 18 21 21 20 18 16 15 15 16 18 20 22 22 22 22 22 21 21 20 20 20 20 20 20 20 21 22 22 22 22 23 24 24 24 23 23 23 24 23 23 22 22 22 22 23 23 22 22 21 20 19 18 16 15 14 12 11 10 9 9 8 8 7 7 7 7 6 7 7 7 8 9
3 2 2 2 2 2 2 2 2 2 2 2 3 3 3 4 4 5 6 7 9 10 11 14 16 18 18 17 16 15 16 17 19 21 23 23 22 22 20 20 20 19 20 21 21 21 21 21 22 22 24 25 26 27 27 29 29 29 28 27 26 24 24 23 23 23 23 23 23 24 24 24 23 23 22 21 19 17 15 14 13 12 11 10 10 9 8 8 7 7 7 7 8 8 9 9 10
3 2 2 2 2 2 2 2 2 2 2 2 2 2 3 4 5 6 6 8 10 12 14 15 16 16 16 16 16 16 17 19 21 21 21 20 19 19 19 20 21 22 22 23 23 24 24 25 26 27 29 30 31 31 31 32 32 32 31 29 27 25 25 25 25 26 26 25 25 25 25 24 24 23 22 20 19 17 15 14 13 12 12 11 10 9 9 9 8 9 9 9 9 10 11 11 12
3 2 2 2 2 2 2 2 2 2 2 2 3 3 3 4 5 5 6 9 12 14 15 15 14 14 14 14 13 14 15 16 17 17 17 17 17 18 19 21 23 24 25 26 28 28 28 28 29 30 32 34 33 32 31 31 32 32 31 29 28 28 27 27 28 28 27 27 26 26 26 25 24 23 21 20 19 18 17 16 15 14 13 12 11 11 11 12 12 12 13 13 13 13 13 13 14
3 3 2 2 2 2 2 2 2 3 3 3 3 3 3 4 5 5 6 9 11 11 11 11 10 9 9 10 10 11 12 13 13 13 13 14 15 16 18 19 21 23 26 29 30 30 29 29 30 31 33 34 33 32 31 31 33 33 32 31 31 31 30 30 29 29 29 29 28 28 27 26 25 24 23 21 20 19 18 17 16 15 15 15 15 16 17 18 18 18 19 19 19 19 19 19 18
3 3 3 3 3 3 3 3 3 3 3 3 3 3 3 4 4 4 5 7 7 7 7 6 7 7 7 8 8 9 9 10 10 9 10 11 11 13 14 15 17 18 22 24 26 26 26 27 28 30 32 32 32 32 32 33 34 35 35 35 34 33 32 31 31 31 31 31 31 30 28 27 26 24 23 23 22 21 19 18 18 18 20 22 24 25 25 26 26 26 26 26 26 26 26 25 24
3 3 3 3 3 3 3 3 3 3 3 3 3 4 4 4 4 4 5 5 5 5 6 6 6 6 6 7 7 7 7 8 8 8 8 9 9 10 11 11 12 13 15 17 18 20 21 23 24 27 29 30 32 33 34 35 36 37 36 35 33 32 31 30 30 30 31 31 30 29 28 26 25 24 23 23 22 22 23 24 25 27 29 32 33 34 34 34 34 34 34 34 34 33 32 31 29
4 3 3 3 3 4 3 3 4 4 4 4 4 4 4 4 4 5 5 5 5 5 6 6 6 6 7 7 7 8 8 8 9 9 9 10 10 10 11 11 12 13 14 15 16 18 19 22 24 26 28 30 32 34 35 36 37 36 35 33 31 31 30 29 29 29 29 28 28 27 26 26 25 24 23 24 26 28 31 35 37 39 41 43 44 44 44 44 44 43 43 43 42 41 39 37 35
4 4 4 4 4 4 4 4 4 4 4 4 4 4 5 5 5 5 5 6 6 6 6 7 7 8 8 8 9 9 10 10 10 11 11 11 11 12 13 13 14 15 16 17 18 20 21 23 25 27 29 30 31 33 35 36 36 35 34 33 32 32 31 29 28 28 28 28 27 27 26 25 24 24 25 28 32 37 42 45 48 50 51 51 52 52 52 52 51 50 50 49 48 47 45 44 42
5 5 5 5 5 5 5 5 5 5 5 5 5 5 5 6 6 6 6 7 7 7 8 8 9 9 10 10 11 11 11 12 12 12 13 13 14 14 15 16 17 18 19 21 22 23 24 26 27 28 30 31 32 34 36 37 37 36 35 35 34 33 31 29 28 28 28 28 28 27 26 25 26 28 32 36 41 46 49 52 54 55 56 56 56 56 55 55 55 55 54 53 53 52 51 49 48
6 6 6 5 6 6 6 6 6 6 6 6 6 6 6 6 7 7 7 8 8 9 9 10 10 11 11 12 12 12 13 13 13 14 14 15 16 17 17 19 20 22 23 25 26 27 28 29 31 32 34 35 37 39 40 40 38 36 36 36 35 33 30 29 28 28 28 28 27 26 26 27 30 35 40 44 48 51 52 53 53 53 54 54 54 54 54 54 54 54 54 54 54 55 55 55 55
7 7 7 6 6 7 7 7 7 7 7 7 7 7 7 7 8 8 9 9 10 10 11 11 12 12 13 13 13 13 14 14 15 16 16 17 18 20 21 23 25 27 28 29 30 31 32 33 36 37 39 42 44 45 43 40 38 37 37 37 35 33 31 29 29 29 28 27 26 26 27 31 36 41 45 48 47 45 43 41 40 41 42 44 46 48 49 50 52 53 54 57 60 62 64 66 68
8 8 8 8 8 8 8 8 8 8 9 8 8 8 8 9 9 10 11 11 12 12 12 13 13 14 14 15 15 15 16 16 17 18 19 21 22 23 26 28 30 32 32 33 34 35 37 39 42 45 48 50 49 47 44 42 40 39 39 38 37 35 32 31 30 29 27 26 25 27 30 36 42 46 45 41 35 29 27 26 27 30 34 40 44 48 52 55 59 62 66 70 72 74 75 76 76
9 9 9 9 9 9 9 9 9 10 10 10 10 10 10 10 11 12 13 13 14 15 15 14 15 16 17 17 17 18 19 20 21 23 24 25 27 29 31 33 36 36 37 38 40 42 44 47 49 52 55 55 52 50 47 44 42 41 41 41 39 37 34 32 30 28 27 26 27 31 36 41 45 42 34 25 20 18 18 20 23 28 34 41 48 53 60 65 69 73 76 78 78 77 76 75 72
10 10 10 10 10 11 11 11 11 11 12 12 13 13 12 12 13 15 15 16 16 17 17 17 17 18 19 19 20 21 23 24 26 27 29 31 33 35 37 39 41 42 43 44 46 49 52 54 57 59 59 58 56 54 51 48 45 45 45 45 42 38 35 31 29 28 27 28 32 37 42 44 38 28 19 15 15 16 18 20 23 28 34 42 48 54 60 65 68 70 71 71 68 65 63 61 57
12 12 12 12 12 12 13 13 13 13 14 14 15 16 15 14 16 17 17 18 19 19 19 19 20 21 21 21 22 23 25 27 28 30 32 35 38 41 43 46 47 48 50 52 54 57 60 62 63 63 62 62 61 59 55 51 49 49 50 48 43 39 34 31 29 28 28 32 38 43 44 37 25 16 14 14 15 17 18 20 22 26 31 37 42 47 51 54 57 58 56 53 51 48 45 43 41
14 14 15 15 14 14 15 16 16 16 16 16 17 19 17 16 18 20 19 20 21 22 21 22 22 22 22 22 23 24 26 27 29 32 34 38 42 45 49 52 54 56 58 61 63 65 67 69 68 67 67 67 66 63 59 55 53 54 53 49 43 38 33 30 29 28 31 36 42 45 39 25 15 13 14 15 16 18 19 20 22 24 27 30 33 37 40 42 43 43 41 39 38 37 35 35 34
Wind_Speed
17 17 18 19 20 20 19 18 18 19 19 17 17 19 19 18 18 18 17 16 14 14 17 18 18 19 19 19 20 21 22 22 24 25 24 24 25 25 26 29 29 29 30 30 31 31 31 31 32 32 33 33 34 34 34 34 34 34 35 36 36 35 35 35 35 36 36 35 36 36 35 36 36 37 37 37 37 36 36 36 36 36 36 35 35 35 35 34 34 34 34 35 34 33 32 32 32
15 17 18 20 20 20 18 16 14 13 13 12 13 15 16 15 16 16 16 15 15 16 19 20 19 18 19 20 21 22 23 24 25 25 25 25 26 27 28 29 30 31 31 31 31 30 30 30 31 32 33 33 34 34 34 33 34 35 35 35 35 34 34 34 34 35 35 35 36 36 36 37 37 38 38 38 38 37 37 37 37 37 37 37 36 36 36 35 35 35 34 35 35 34 33 34 33
11 13 14 15 17 17 16 13 11 9 9 10 10 12 13 13 14 16 16 16 17 19 20 21 20 20 20 20 22 24 25 25 25 25 25 25 26 27 28 29 30 31 31 30 30 29 29 29 30 31 31 32 33 33 33 33 34 35 35 35 35 34 34 34 34 35 36 36 37 37 38 38 39 40 40 39 38 38 38 38 38 38 38 38 37 37 37 37 36 36 36 36 36 35 35 35 35
9 9 9 10 11 11 10 9 8 7 8 8 9 11 13 14 14 15 15 16 18 20 21 21 21 21 20 21 22 24 25 25 25 25 24 24 24 25 26 27 28 30 31 30 29 29 29 29 29 30 31 31 32 32 32 33 34 34 35 35 35 35 35 35 35 36 37 38 38 39 39 40 41 41 41 40 39 39 39 39 39 39 39 39 39 38 38 38 37 37 37 37 37 37 37 37 37
8 8 7 7 6 6 6 6 6 6 7 9 12 13 13 14 16 16 16 17 19 19 20 21 21 20 20 20 22 23 24 25 24 24 23 23 23 24 24 26 28 30 31 30 29 30 30 30 30 31 31 32 32 32 33 33 34 35 35 35 36 36 36 36 36 37 38 39 39 40 41 41 42 43 42 41 40 40 40 40 40 40 41 41 40 40 40 40 39 39 39 39 39 39 39 39 39
8 8 7 7 6 5 5 5 6 8 11 15 16 17 17 16 17 18 17 19 19 18 19 20 20 19 19 19 21 23 24 25 25 23 24 24 24 24 25 27 29 31 33 32 31 31 31 32 32 32 33 33 33 33 34 34 35 35 36 36 37 37 37 37 37 38 39 39 40 41 42 43 44 44 44 44 42 41 41 41 41 42 43 43 43 43 42 42 42 42 42 42 41 41 41 41 41
7 7 7 7 6 7 7 7 11 15 17 18 16 17 19 18 18 19 18 19 19 18 19 19 20 19 20 20 21 23 25 26 25 24 24 24 25 26 26 27 29 31 33 33 33 33 33 33 33 34 35 35 35 35 35 36 36 36 37 37 38 38 38 38 39 39 40 40 40 41 42 43 44 46 46 46 45 44 43 43 43 43 44 45 45 45 45 45 44 44 44 44 43 43 43 43 43
8 9 8 8 9 10 11 13 18 19 18 17 15 15 16 18 18 19 19 19 18 19 21 21 21 22 22 21 22 24 26 27 26 26 26 26 27 27 28 28 29 31 32 33 34 34 34 34 34 35 35 36 36 36 36 36 37 38 38 39 39 40 40 40 40 41 41 41 41 41 42 43 44 46 47 48 48 48 47 46 45 45 46 47 47 47 47 47 47 46 46 46 46 45 45 45 45
11 11 11 10 11 12 12 15 19 19 17 15 13 12 14 16 17 17 18 18 19 21 22 22 22 23 23 24 25 26 27 27 27 27 28 28 29 29 30 30 31 32 33 34 35 35 35 36 36 36 36 36 36 36 36 37 37 38 39 40 41 41 42 42 42 42 43 43 43 44 44 44 45 46 47 49 50 50 50 50 49 48 48 49 49 50 50 50 49 49 48 48 48 48 48 48 47
12 12 11 8 8 10 12 16 16 15 14 12 11 11 12 14 15 17 18 19 21 23 24 23 22 23 25 26 27 29 29 29 29 29 30 30 31 31 32 32 32 33 33 34 35 36 37 37 37 37 37 37 38 38 38 38 38 39 39 40 41 42 43 43 44 44 44 45 45 46 46 47 47 48 49 50 50 51 52 52 52 51 50 50 51 52 52 52 52 51 51 51 50 51 51 50 50
9 8 8 6 7 8 10 14 14 13 13 12 12 12 14 15 17 19 19 21 22 24 25 25 24 24 26 28 29 30 31 30 30 31 31 32 32 32 32 33 33 33 33 34 35 36 37 37 38 37 37 38 38 38 39 39 40 40 41 42 42 43 43 44 45 45 46 47 47 48 48 49 50 50 50 51 51 52 53 53 53 53 52 52 52 53 54 54 54 54 54 53 53 53 53 54 53
5 4 6 7 8 8 11 15 15 14 14 14 15 16 17 19 20 21 22 22 22 24 26 27 27 26 27 28 29 31 31 31 31 32 33 33 33 33 33 33 33 33 33 34 35 36 36 37 37 37 37 37 38 38 39 40 40 41 41 42 43 44 44 45 46 47 47 48 48 49 49 50 51 51 52 52 52 53 53 54 54 54 54 54 54 55 55 56 56 56 56 56 56 56 57 57 57
6 6 8 9 10 11 14 18 18 16 16 16 17 18 20 22 23 24 24 24 24 25 26 28 28 28 28 29 30 31 32 32 33 33 34 34 35 35 34 34 34 35 35 35 36 37 37 38 38 38 38 38 38 39 39 40 40 41 42 42 43 44 45 46 47 47 48 49 49 50 51 51 52 52 53 53 53 54 54 55 55 56 56 56 56 57 57 58 58 59 59 59 59 59 60 60 60
8 8 10 12 13 14 16 19 20 19 18 18 19 20 22 24 25 26 27 26 25 25 27 29 29 29 29 30 31 32 33 33 34 35 35 36 36 37 37 37 37 37 37 38 38 39 39 39 39 40 40 40 40 40 41 41 42 43 43 44 44 45 45 46 47 48 49 49 50 51 52 52 53 54 54 55 55 56 56 56 57 57 57 58 58 59 59 59 60 61 61 61 61 62 62 62 62
9 10 12 14 16 17 18 20 21 21 21 21 22 22 23 25 26 27 28 28 27 27 28 30 31 32 32 32 32 33 34 35 36 36 37 37 38 38 39 39 39 39 39 39 40 40 40 40 41 41 41 42 42 42 43 44 45 45 46 45 45 46 47 47 48 49 50 50 51 52 52 53 54 55 56 56 57 57 58 58 58 58 59 59 60 60 61 61 61 62 62 63 63 63 63 63 62
11 12 14 17 18 19 19 20 22 22 22 22 23 23 24 26 26 28 29 29 30 29 30 32 33 34 35 34 35 35 36 37 37 38 38 38 39 39 40 41 41 41 41 41 41 41 42 42 42 43 43 43 44 45 46 47 47 47 48 47 47 48 49 50 50 51 52 52 52 53 54 54 55 56 57 58 58 58 59 59 59 60 60 60 61 61 62 63 63 63 63 63 63 63 63 63 63
14 14 16 20 21 21 20 21 22 23 23 24 25 25 26 27 28 29 30 31 31 32 33 33 34 35 36 37 37 37 37 38 38 39 40 40 40 41 41 42 42 43 43 43 44 44 44 44 44 45 45 46 47 48 48 49 49 50 51 51 51 52 52 53 54 55 55 55 55 56 56 57 57 58 58 59 59 59 60 60 60 61 61 62 62 62 63 63 64 64 64 64 64 64 64 64 64
16 16 19 22 23 22 21 22 23 24 26 26 27 27 27 29 29 30 31 32 33 34 34 35 36 37 38 38 39 39 39 39 40 41 41 42 42 42 43 43 43 44 45 46 46 47 47 47 48 48 48 49 50 51 51 52 53 53 54 54 55 55 56 57 58 58 59 59 59 59 59 60 60 60 61 61 62 62 62 63 63 63 63 63 63 64 64 65 65 65 65 65 66 66 66 66 66
16 18 21 23 23 22 23 23 24 26 28 28 29 29 29 30 31 31 32 33 34 35 36 37 37 38 39 39 40 40 41 42 42 43 44 44 44 45 45 45 45 46 47 48 49 49 50 50 51 51 52 52 53 54 54 55 55 56 57 57 58 59 60 61 61 61 62 62 62 62 62 63 63 63 64 64 64 65 65 65 66 66 66 66 66 66 66 67 67 67 68 68 68 68 68 69 69
18 20 23 24 23 23 23 24 26 28 29 30 30 30 31 32 33 34 34 35 36 37 38 38 38 39 40 40 41 42 43 44 44 45 46 46 47 47 48 48 49 49 50 51 51 52 52 53 53 53 54 54 55 55 56 57 57 58 58 59 60 61 62 63 63 63 64 64 64 65 65 66 66 66 67 67 67 67 68 68 68 68 69 69 69 69 70 70 70 70 70 70 70 71 71 71 71
21 23 24 25 24 25 25 25 28 29 30 31 31 31 32 33 34 35 36 37 38 39 39 40 40 40 41 42 43 44 45 46 46 47 47 48 48 49 50 50 51 52 53 53 54 54 54 55 55 55 56 56 57 57 58 58 58 59 59 60 61 62 63 64 64 65 65 65 66 66 67 67 68 68 69 69 69 70 70 70 70 70 70 71 71 71 72 72 72 73 72 72 72 73 73 73 73
24 25 26 26 26 26 26 28 29 31 31 32 32 32 33 35 36 37 38 40 40 40 40 41 42 42 43 44 44 45 46 47 47 48 49 49 50 50 51 52 52 53 54 55 55 56 56 56 57 57 57 58 59 59 60 60 60 60 60 61 61 62 63 64 65 66 66 67 67 68 69 69 69 70 70 71 71 71 72 72 72 72 72 73 73 73 73 74 74 74 74 74 74 74 74 75 75
26 26 27 27 27 28 29 30 31 32 32 33 33 34 35 36 37 38 40 41 41 42 42 42 43 44 44 45 46 46 47 47 48 49 49 50 50 51 51 52 53 54 55 55 56 57 57 58 58 58 59 59 60 60 61 62 62 62 62 63 63 64 64 65 66 67 68 68 69 70 70 71 71 72 72 73 73 73 74 74 74 74 74 75 75 75 75 75 75 76 76 76 76 76 76 76 76
26 27 27 28 28 30 31 31 32 32 33 33 34 36 36 36 37 38 39 40 41 42 43 43 44 44 45 46 47 47 48 48 49 49 50 50 51 51 52 52 53 54 55 56 57 58 59 59 60 61 61 62 62 63 63 64 65 65 66 66 66 67 67 68 69 70 70 71 71 72 72 73 74 74 75 75 75 76 76 76 76 76 76 77 77 77 77 77 77 77 77 78 78 78 78 78 78
27 29 29 30 30 31 32 32 32 33 34 34 36 37 37 37 38 38 39 40 41 42 43 44 45 45 46 46 47 48 49 49 50 50 51 51 52 52 53 54 54 55 57 58 59 60 61 62 63 64 64 65 66 66 67 67 68 68 69 69 69 69 70 70 71 72 73 73 74 74 75 75 76 76 77 78 78 78 79 79 79 79 79 80 80 80 80 80 80 79 79 79 80 80 80 80 80
28 30 31 31 31 32 32 33 33 34 35 35 37 37 37 38 38 39 40 40 41 42 43 44 45 46 46 47 47 48 49 50 51 51 52 53 54 55 56 57 58 58 59 60 61 62 63 63 64 65 66 66 67 68 68 69 69 70 70 71 71 72 72 73 73 74 74 75 76 76 77 78 78 78 79 79 80 80 81 81 81 82 82 82 83 83 83 83 83 82 82 82 82 82 82 82 82
28 30 31 32 32 32 32 33 33 34 35 35 36 36 36 37 38 39 40 41 42 43 44 45 45 46 47 48 48 49 50 51 52 54 55 56 57 57 58 59 59 60 60 61 61 62 62 63 64 65 65 66 67 67 68 69 69 70 71 71 72 72 73 73 74 75 75 75 76 76 77 78 78 79 79 80 80 81 82 82 82 83 83 84 84 84 84 84 84 84 84 84 84 83 83 84 84
29 30 31 31 31 32 32 32 32 33 34 34 34 34 35 36 37 39 40 42 43 44 45 46 47 48 49 50 51 52 53 53 54 55 55 56 57 57 58 58 59 60 60 60 61 61 62 62 63 63 64 65 65 66 67 68 68 69 70 70 71 71 72 73 73 74 75 75 75 76 76 77 78 78 79 80 80 81 81 82 83 83 83 84 84 85 85 85 85 85 85 85 85 85 84 85 85
29 29 29 30 30 31 31 31 32 33 33 33 34 35 36 37 38 40 41 43 44 45 46 47 48 49 50 51 52 52 53 53 54 54 54 55 55 56 56 57 58 58 59 59 60 60 61 61 62 63 63 64 65 65 66 67 67 68 69 69 70 71 72 72 73 74 75 75 76 76 77 77 78 78 79 80 80 81 82 82 83 83 84 84 85 85 85 86 86 86 86 86 85 85 85 85 85
27 28 29 29 29 30 30 31 32 32 33 34 35 36 36 37 39 40 42 43 45 46 46 47 47 48 48 49 50 50 51 52 52 53 53 54 55 55 56 56 57 57 58 58 59 59 60 60 61 62 62 63 63 64 65 66 66 67 68 69 69 70 71 72 72 73 74 75 76 76 77 77 78 79 79 80 81 81 82 82 83 84 84 85 85 86 86 87 87 87 87 86 86 86 86 86 86
26 27 28 29 29 30 30 30 31 32 33 34 35 36 36 37 38 40 41 42 43 44 45 45 46 46 47 47 48 49 50 51 52 52 53 53 54 54 55 55 56 56 57 57 57 58 58 59 59 60 61 61 62 63 64 64 65 66 67 68 69 70 70 71 72 73 74 75 75 76 76 77 78 79 79 80 81 81 82 82 83 83 84 85 85 86 87 87 88 88 88 88 88 88 88 87 87
24 25 27 27 28 29 29 30 31 32 33 34 35 36 36 37 38 40 41 42 43 44 44 45 46 46 47 48 48 49 50 50 51 52 52 53 53 54 54 54 55 55 55 55 56 56 57 57 58 58 59 60 61 62 63 64 65 66 67 68 69 70 70 71 72 73 74 74 75 76 77 77 78 79 80 80 81 82 82 83 84 84 85 85 86 86 87 87 88 88 89 89 89 89 90 90 90
23 24 25 26 27 29 29 30 31 32 33 34 35 36 36 37 39 40 41 42 43 44 45 46 47 48 48 49 50 50 51 51 51 51 52 52 52 53 53 53 53 54 54 55 55 56 56 56 57 58 58 59 60 60 61 62 63 64 65 66 67 68 69 70 71 71 72 74 75 76 77 77 78 79 80 81 82 82 83 84 85 86 86 87 88 88 89 89 89 89 89 90 90 90 90 91 91
23 24 25 26 27 29 30 31 32 33 34 34 35 36 37 39 40 42 43 44 45 46 47 48 49 49 50 50 51 51 51 51 51 50 50 50 50 51 51 51 52 52 53 53 54 54 55 55 56 56 57 58 58 59 60 60 61 62 63 64 65 66 67 68 69 70 71 72 74 75 76 77 78 79 80 81 82 82 83 84 85 86 87 88 89 90 91 91 92 92 92 92 92 92 92 92 92
23 24 25 26 27 29 30 31 33 34 35 36 37 38 40 42 43 44 45 46 46 47 48 48 49 49 49 49 49 49 49 48 48 48 48 48 48 48 48 49 49 49 50 50 51 51 52 53 54 54 55 56 57 58 59 59 60 61 62 63 64 66 67 68 69 70 71 72 74 75 76 77 78 79 80 81 82 83 84 85 86 87 88 89 90 91 92 93 93 94 94 94 94 94 94 94 94
24 25 26 27 29 30 32 33 34 35 36 37 38 40 41 43 44 45 46 46 47 47 48 48 48 48 48 47 46 46 45 45 45 45 45 45 45 46 46 46 46 46 47 47 48 49 50 51 52 53 54 55 56 57 58 59 60 61 63 64 65 66 67 69 70 70 71 72 74 75 76 77 78 79 81 81 82 83 84 85 86 88 89 90 91 92 93 94 94 95 95 96 96 97 97 98 97
26 27 28 29 29 31 31 33 34 34 35 37 38 40 42 43 44 45 46 47 47 48 48 48 47 46 45 44 43 43 42 42 42 42 42 42 42 42 43 43 44 45 46 47 47 49 50 51 52 53 54 55 57 58 59 60 61 62 62 63 64 66 67 68 69 70 71 72 73 74 75 76 77 78 80 80 81 82 83 84 86 87 89 91 92 94 94 95 96 96 96 97 97 97 98 99 100
25 26 27 27 28 29 30 31 33 34 35 37 39 41 43 44 45 45 46 46 47 47 46 45 44 43 42 41 40 40 40 40 40 40 40 40 40 41 41 42 43 44 46 47 48 49 51 52 53 54 55 57 58 59 60 61 62 62 63 63 64 65 66 67 68 69 70 71 73 74 75 76 77 78 79 80 81 82 83 83 85 86 88 91 93 95 96 97 97 98 98 98 98 99 99 99 100
24 25 26 27 28 29 30 32 34 35 37 38 40 41 42 43 43 43 43 44 44 44 43 42 41 40 39 39 39 39 38 38 37 38 38 39 39 40 41 43 44 46 47 48 50 51 52 53 54 56 57 58 59 60 61 62 62 63 64 64 65 65 66 67 68 69 71 72 74 75 77 78 79 80 82 83 83 84 85 85 86 87 89 91 93 95 97 98 99 100 101 101 101 101 101 101 102
25 26 28 29 29 31 32 33 34 35 36 37 37 37 37 38 38 38 39 39 39 38 38 37 37 37 37 37 37 36 36 36 36 37 38 39 40 42 43 45 47 48 49 50 52 53 54 55 56 57 58 59 61 61 62 63 64 65 65 66 67 68 69 70 71 72 73 75 76 78 79 80 81 83 84 85 86 87 87 88 89 89 91 92 93 95 97 99 100 101 103 103 104 104 103 103 104
25 27 28 29 30 31 32 33 33 33 33 33 33 32 32 33 33 34 34 34 33 33 33 33 34 34 34 34 34 34 34 35 36 38 39 41 43 44 46 47 48 49 50 52 53 54 55 56 57 58 59 60 61 62 63 64 65 66 67 67 68 69 71 72 73 74 75 76 77 79 80 81 82 84 85 87 88 89 89 90 91 92 93 94 95 96 98 99 100 101 103 104 105 106 106 105 106
26 27 28 29 30 31 31 31 31 30 29 29 28 28 29 29 29 30 30 30 30 30 31 31 32 32 32 32 32 34 35 37 39 40 42 43 44 45 46 48 49 50 51 52 53 55 56 57 57 58 59 60 61 62 63 64 65 66 68 68 69 70 71 73 74 75 76 77 78 79 80 82 83 84 85 87 89 90 91 92 93 94 95 95 96 97 98 98 99 100 102 103 105 106 107 107 107
27 27 28 29 29 29 29 28 27 26 26 25 25 25 25 25 26 28 28 29 30 31 31 31 31 31 31 33 34 36 38 39 41 42 43 44 45 46 47 48 49 50 51 53 54 55 56 57 58 58 59 60 61 62 63 64 66 67 69 70 71 72 73 74 75 76 77 77 78 79 80 81 82 84 85 87 89 90 91 93 94 95 95 96 96 96 96 96 96 97 99 100 102 104 105 106 107
26 27 27 28 28 27 26 25 25 24 24 23 23 23 24 24 25 27 28 28 29 30 30 31 31 32 33 35 36 38 39 40 41 42 43 44 45 46 47 48 49 50 51 52 53 55 56 57 58 59 60 61 62 63 64 65 67 68 70 71 72 73 74 75 76 77 77 78 78 79 79 80 82 84 85 88 90 92 93 93 94 94 94 94 93 93 93 92 92 92 93 94 96 97 99 101 102
26 26 26 26 25 25 25 24 23 23 22 23 23 24 25 24 25 26 27 26 27 28 28 30 31 33 34 35 36 37 38 39 41 42 43 44 44 45 46 46 47 49 50 51 53 55 56 57 58 59 60 61 62 63 65 66 67 69 71 72 73 74 75 75 76 76 77 78 78 79 80 81 83 85 88 90 92 93 94 93 93 92 90 89 89 88 88 87 86 86 86 86 87 88 90 92 94
25 25 25 24 24 24 24 23 22 22 23 23 24 25 25 24 23 25 25 24 25 25 26 27 29 31 33 34 35 36 37 38 39 40 41 41 42 43 43 45 46 47 48 50 52 54 56 57 58 59 60 61 63 64 65 66 67 69 71 72 73 74 74 75 75 76 77 78 79 80 82 84 86 88 90 92 93 94 94 92 90 88 86 84 83 83 82 82 81 81 80 80 80 81 82 83 85
24 24 24 24 24 24 23 23 23 23 24 24 24 25 25 23 22 23 23 22 23 23 24 25 27 29 31 32 33 34 35 36 37 38 39 40 41 42 44 45 47 48 50 51 53 55 56 58 59 60 61 62 63 64 65 66 68 70 71 73 74 75 75 76 76 78 79 80 82 83 85 87 89 91 92 92 92 92 91 89 86 83 81 80 79 78 78 78 78 78 77 78 78 78 78 79 80
23 23 23 23 23 23 23 23 23 23 24 24 23 23 23 23 22 22 22 22 22 23 24 25 27 28 29 30 31 32 33 34 36 37 38 40 41 43 45 47 48 50 52 54 55 57 58 60 61 62 63 64 64 66 67 68 70 71 73 75 76 77 78 78 79 80 82 83 84 86 88 89 91 91 91 91 89 88 86 84 82 80 78 77 77 76 76 76 77 77 77 78 78 79 79 80 80
23 23 22 22 23 23 23 23 22 21 23 23 23 23 23 22 22 22 22 22 23 23 24 25 26 27 28 29 31 32 34 35 36 38 39 41 43 45 46 48 50 51 53 55 56 58 59 60 62 62 64 65 65 67 68 69 71 73 74 75 77 78 79 80 81 82 83 85 86 88 89 90 91 90 89 87 85 83 81 79 78 78 77 77 76 76 76 77 77 78 78 79 80 80 81 81 81
22 22 22 23 23 24 23 23 22 20 21 23 24 24 24 23 23 23 23 23 24 24 25 26 27 28 29 30 32 33 35 37 38 40 42 44 45 47 48 50 51 53 54 56 57 59 60 61 62 63 64 65 66 68 69 70 72 73 74 76 77 78 79 80 81 82 84 86 88 89 90 90 89 87 85 82 80 79 78 77 77 77 77 77 78 78 78 78 79 80 80 81 81 82 82 83 82
22 22 23 23 23 24 24 24 23 21 20 22 23 25 26 26 25 25 25 25 26 26 27 28 29 30 31 33 34 36 37 39 41 42 44 46 47 49 50 51 53 54 56 57 59 60 61 62 63 64 65 66 67 68 70 71 72 74 75 76 77 78 79 80 82 84 86 87 88 89 89 88 86 84 82 80 78 77 77 77 77 78 78 79 79 80 80 80 81 81 81 81 81 81 82 82 82
23 23 24 24 24 24 25 25 25 25 22 22 23 24 28 29 27 26 27 27 28 29 29 31 32 33 34 35 37 39 40 42 44 45 47 48 50 51 52 54 55 56 57 59 60 61 62 63 64 65 66 67 68 69 70 72 73 74 75 76 77 79 80 82 84 86 88 89 89 88 87 85 84 82 80 79 79 79 79 79 79 79 79 79 80 80 80 80 80 80 79 79 79 79 79 78 79
24 25 25 25 25 25 26 27 27 28 26 23 23 23 28 31 29 27 28 29 29 30 31 33 35 36 37 38 40 42 43 45 46 48 49 51 52 53 54 55 56 58 59 60 61 62 63 63 64 65 66 67 69 70 71 72 74 74 75 77 78 79 81 83 86 88 89 89 89 87 86 84 83 82 81 81 81 81 81 80 79 78 77 77 77 76 76 75 75 75 74 74 73 73 73 73 73
25 26 26 26 26 26 27 28 28 30 29 26 24 23 27 32 31 28 29 30 30 31 32 35 37 38 39 40 42 44 46 48 49 50 52 53 54 55 56 57 58 59 60 61 62 63 64 65 65 66 67 68 69 71 72 74 74 75 76 77 78 80 82 85 87 89 89 89 88 86 84 83 82 83 83 83 82 81 79 77 75 73 72 71 70 70 69 68 68 67 67 67 67 67 68 68 68
25 25 26 27 27 27 27 28 29 31 32 30 27 24 25 33 33 30 31 32 32 33 34 37 39 40 42 43 45 46 48 49 51 52 54 55 56 57 58 59 59 61 62 62 63 64 65 66 67 67 68 69 70 72 73 74 75 76 77 78 79 81 83 86 88 89 89 88 86 84 83 83 83 83 83 81 79 76 73 71 69 67 65 65 64 63 63 62 62 61 61 62 62 63 63 63 64
25 25 26 26 27 28 28 28 29 31 33 34 32 27 25 32 34 32 34 35 35 35 36 39 41 42 44 45 46 48 49 51 52 54 55 56 57 58 59 60 61 62 63 64 65 65 66 67 68 68 69 70 72 73 74 75 76 77 78 79 80 82 84 87 89 89 88 87 85 83 83 83 83 82 80 76 73 70 68 66 64 62 61 60 60 59 58 58 58 58 58 59 59 60 60 60 61
26 26 27 27 28 29 29 29 29 30 32 35 37 33 27 33 37 34 36 38 38 38 39 41 43 44 46 47 48 50 51 52 54 55 56 57 58 59 60 61 62 63 64 64 65 66 67 67 68 69 70 71 72 74 75 77 77 78 79 80 82 83 85 88 89 89 87 85 84 83 83 83 81 78 74 70 68 66 64 63 61 59 58 57 57 56 56 56 55 55 56 56 56 57 57 57 58
26 26 27 28 29 30 31 31 30 31 32 34 39 37 29 32 40 38 38 41 41 41 42 43 45 46 48 49 50 51 52 54 55 55 57 57 58 60 61 62 62 63 64 65 66 67 67 68 69 70 71 72 73 75 76 78 79 79 80 81 83 84 86 88 89 88 86 84 83 83 83 82 78 73 69 66 64 63 61 60 58 56 55 55 54 54 54 54 53 53 53 53 54 54 54 54 54
Wind_Direction
212 217 218 216 217 222 227 220 212 207 210 218 220 217 212 213 215 217 217 218 229 244 248 248 255 258 259 266 270 270 269 267 269 270 272 272 272 272 271 271 273 273 272 271 271 270 270 269 268 267 266 265 264 264 264 264 264 264 265 265 265 265 265 264 263 263 262 260 259 258 255 252 250 248 246 246 245 245 245 245 246 246 245 245 245 245 245 244 244 245 246 247 247 247 247 246 246
216 219 222 220 217 220 225 216 210 209 210 218 219 216 212 211 214 217 221 226 233 243 248 248 254 262 266 271 273 273 272 270 272 273 275 275 275 275 273 273 274 273 272 271 271 270 270 268 267 266 265 265 264 264 264 263 263 263 264 264 264 263 263 262 261 261 260 258 257 256 253 250 247 246 246 246 246 246 246 246 246 246 246 246 246 246 246 246 246 246 247 249 249 249 249 249 248
216 216 218 214 208 212 218 214 211 215 215 223 227 225 223 220 220 222 228 238 244 246 247 248 253 261 266 270 272 272 272 272 272 273 274 274 275 275 275 274 274 272 271 270 270 269 268 267 267 266 265 264 264 264 264 264 263 263 263 263 263 262 261 261 260 259 258 257 256 254 252 249 246 245 246 246 247 248 248 248 248 247 248 247 247 247 247 247 247 247 247 248 249 250 250 250 250
218 212 210 202 199 204 213 217 218 225 231 237 242 241 240 238 236 233 237 247 253 255 257 260 260 261 263 265 268 269 271 273 273 273 275 276 275 275 275 274 274 273 271 270 270 269 268 268 267 266 265 265 265 265 265 265 264 264 263 263 263 262 261 261 260 259 258 257 256 254 253 250 246 245 246 247 248 250 251 251 251 250 250 249 249 248 248 248 248 248 247 247 248 249 249 249 250
219 212 213 211 206 212 222 233 239 245 248 242 235 234 239 244 246 241 239 245 251 255 257 259 258 258 260 264 268 271 272 273 273 274 277 278 277 276 275 275 274 274 273 273 272 271 270 269 268 268 267 267 266 266 266 265 265 265 264 264 263 263 262 261 260 259 258 257 256 255 254 251 248 246 247 248 249 251 253 253 253 253 252 251 250 249 249 249 248 248 248 248 247 248 249 249 249
220 219 226 231 228 231 230 240 245 234 233 234 232 231 233 239 245 241 240 245 252 258 259 258 260 264 266 269 272 274 275 275 275 277 279 279 278 277 275 274 274 275 275 275 275 273 272 271 271 270 269 268 268 267 266 266 266 265 265 264 263 263 261 260 259 259 258 257 256 255 254 252 249 248 247 248 250 252 254 255 255 254 252 252 251 250 249 249 249 249 249 249 249 248 249 250 250
232 235 239 243 247 247 234 238 244 233 230 234 238 242 242 244 249 247 248 253 257 265 269 270 272 273 272 272 273 274 276 276 276 279 280 280 279 277 275 274 274 275 276 276 276 274 273 273 272 271 270 269 269 268 268 267 267 267 266 265 264 263 262 261 259 259 258 258 257 255 254 253 251 250 249 250 251 253 255 256 256 255 253 252 251 251 250 250 250 250 251 251 251 250 251 251 251
245 245 247 247 247 251 243 237 242 241 241 246 250 256 258 257 257 257 259 264 267 269 271 274 276 276 275 275 276 275 276 276 278 279 280 279 278 277 276 275 274 274 275 276 276 276 275 273 272 271 271 270 270 269 269 269 268 267 267 266 266 265 264 262 261 260 259 259 259 258 256 255 254 253 252 252 253 255 256 257 258 257 255 253 252 251 251 251 252 252 253 253 253 253 252 252 253
248 248 244 244 245 253 255 247 246 251 256 262 266 267 267 265 265 267 268 271 270 268 267 270 275 277 279 280 280 278 277 277 279 280 280 279 278 277 276 275 274 274 274 276 277 277 276 274 273 272 272 272 271 271 270 269 268 268 268 267 267 266 265 265 264 263 262 261 261 260 259 258 257 256 255 255 255 256 258 259 259 259 257 255 254 253 253 253 253 254 254 255 255 255 254 254 254
250 255 253 257 258 257 261 260 258 263 268 271 274 270 268 267 267 268 270 270 268 267 268 271 273 275 278 280 280 281 280 281 281 282 281 280 279 278 277 276 276 276 276 276 277 277 277 276 275 275 274 274 273 273 272 271 270 269 269 268 268 267 267 266 266 265 264 263 262 261 261 260 259 258 258 257 258 258 259 260 261 260 259 257 255 254 254 254 255 255 256 257 257 257 256 256 256
252 262 265 257 246 245 253 260 262 266 273 275 274 273 270 268 266 266 268 271 272 273 274 276 276 277 279 280 282 282 283 283 283 281 280 279 279 279 279 278 278 278 278 277 277 277 277 277 278 278 277 277 276 275 274 273 272 271 270 269 269 269 269 268 267 266 265 264 263 262 262 261 261 260 260 260 260 260 261 261 262 261 260 259 257 256 256 256 256 257 257 258 258 259 258 258 258
241 229 237 227 230 240 248 255 255 256 264 270 275 276 273 270 268 269 271 274 277 278 280 281 282 283 283 283 282 282 282 282 282 280 280 280 280 280 280 280 280 279 278 278 278 278 278 279 280 280 279 279 278 277 276 275 274 273 272 272 271 271 270 269 268 267 267 266 265 264 264 263 263 262 262 262 262 262 262 262 262 262 261 260 260 259 258 258 258 258 259 259 260 260 260 260 259
227 217 228 232 238 247 255 261 263 264 269 274 277 277 277 276 274 274 276 278 280 281 283 284 284 284 283 282 281 280 281 281 281 281 281 281 282 282 281 281 281 280 280 279 279 279 279 280 280 280 280 279 279 278 278 278 277 276 275 274 273 272 271 270 269 268 268 267 266 266 265 265 264 264 263 263 263 262 262 262 262 262 262 261 261 261 260 260 259 259 259 260 260 261 261 261 260
230 235 244 249 251 254 261 268 273 277 279 279 277 276 277 278 279 279 280 281 281 282 282 282 282 280 279 279 280 280 280 281 282 282 282 282 282 282 283 282 282 282 281 281 280 280 280 280 280 280 280 280 280 280 280 279 278 276 275 274 273 273 272 271 270 269 268 268 267 267 266 266 265 265 264 263 263 262 262 262 262 262 262 262 262 261 261 261 261 260 260 260 261 261 261 261 261
241 248 256 260 262 262 266 272 278 281 281 279 278 278 278 278 280 281 282 282 282 280 279 279 280 280 279 279 280 280 281 282 283 283 283 283 283 284 284 284 284 283 283 282 282 281 281 280 280 280 280 281 280 280 279 277 275 274 274 274 274 273 272 271 271 270 269 269 268 268 267 267 266 265 265 264 264 263 263 263 263 263 263 263 263 262 262 262 262 262 262 262 262 262 262 263 263
259 261 266 267 267 268 271 275 278 280 281 280 279 279 279 279 280 280 281 282 281 280 279 279 280 281 282 282 281 281 282 283 283 284 284 284 284 284 284 285 285 284 284 283 282 281 281 280 279 279 279 278 277 276 275 274 274 274 274 273 273 272 272 271 270 269 269 268 267 267 267 266 266 266 266 265 265 265 265 265 264 264 264 264 264 264 264 264 263 263 263 264 264 264 264 264 264
269 270 272 271 270 272 274 275 276 279 279 278 277 278 278 279 279 279 280 281 281 281 280 280 281 281 282 283 283 284 284 284 283 283 283 283 283 283 283 284 284 283 283 282 282 281 280 279 278 277 276 275 274 273 273 274 274 274 274 273 272 272 271 270 269 269 268 268 267 267 267 267 267 267 267 267 266 266 266 266 266 266 265 265 266 266 266 266 266 266 265 265 265 265 265 265 265
274 274 272 271 272 275 276 277 278 278 277 277 278 278 278 279 279 279 280 280 281 281 281 282 282 282 283 284 285 285 285 284 283 282 282 282 281 281 281 281 281 281 280 280 280 279 279 278 277 276 275 274 274 274 273 274 273 273 273 273 272 272 271 271 270 270 270 270 270 269 269 269 269 269 268 268 268 268 268 268 268 267 267 267 267 267 267 267 267 267 267 267 266 266 266 266 265
275 273 270 271 275 277 277 278 279 278 278 279 280 281 281 281 281 280 280 280 281 281 281 282 282 283 284 285 284 284 284 283 283 282 282 281 281 280 280 279 279 279 279 278 278 277 277 277 277 277 277 276 275 275 275 274 274 274 273 273 273 273 273 272 272 273 273 273 273 273 272 272 271 271 270 270 270 269 269 269 269 269 269 269 269 268 268 268 268 268 267 267 267 267 266 266 266
275 272 272 275 277 278 278 279 279 279 279 280 281 282 282 282 282 282 281 281 281 280 281 282 282 283 283 283 283 284 284 283 283 283 282 282 282 281 281 280 279 279 278 278 278 277 277 277 277 277 277 277 277 276 276 275 275 275 275 275 275 275 275 275 275 275 275 274 274 274 274 273 273 272 272 272 271 271 271 270 270 270 270 270 269 269 269 268 268 267 267 267 267 267 267 266 266
275 273 274 276 276 277 279 279 278 278 279 279 280 281 281 282 282 282 282 281 281 281 281 282 283 283 283 283 283 283 284 284 284 284 283 282 282 282 281 281 280 279 279 279 278 278 278 277 277 277 277 276 276 276 276 276 276 276 276 276 276 276 276 276 276 276 276 275 275 274 274 273 273 273 272 272 272 271 271 271 270 270 270 269 269 269 269 268 268 267 267 267 267 267 267 266 266
273 272 273 274 275 276 276 275 275 276 278 278 279 279 280 281 281 281 281 282 282 283 283 283 284 283 283 283 283 283 283 283 283 283 283 282 282 282 281 281 280 280 280 279 279 279 279 278 278 278 277 277 277 277 277 277 276 276 276 276 276 276 276 276 276 275 275 274 274 274 273 273 273 272 272 271 271 271 270 270 270 269 269 269 268 268 268 268 268 268 267 267 266 266 266 266 266
269 271 272 273 275 274 273 273 273 275 276 277 278 279 279 279 280 281 281 282 283 283 284 284 283 283 283 282 282 282 282 281 281 281 281 281 281 281 281 281 281 281 281 281 280 280 280 280 279 279 279 278 278 278 277 277 277 276 275 275 275 275 274 274 274 274 273 273 273 273 272 272 272 272 271 271 271 270 270 270 269 269 269 268 268 267 267 267 267 267 267 267 267 266 266 266 265
266 267 268 270 271 272 273 274 274 275 275 276 277 278 279 279 279 279 280 280 281 282 282 282 282 281 281 281 281 281 281 280 280 280 280 280 281 281 281 281 281 282 282 282 281 281 281 280 280 279 279 278 277 277 276 276 275 275 274 274 273 273 273 273 273 272 272 272 272 272 272 271 271 271 271 270 270 270 269 269 269 269 268 268 268 267 267 267 266 266 266 266 266 266 266 265 265
266 267 267 268 269 270 272 273 274 275 276 277 277 278 278 279 280 280 280 280 280 280 280 280 281 281 281 280 280 280 280 280 280 280 281 281 281 281 281 281 281 281 281 281 281 280 280 280 279 278 278 277 277 276 276 275 275 274 274 273 273 272 272 272 272 271 271 271 271 271 271 271 270 270 270 270 269 269 269 268 268 268 268 268 268 267 267 267 266 266 266 266 266 265 265 265 265
267 269 270 271 270 271 272 273 275 276 277 277 277 278 279 280 282 282 282 281 280 280 280 280 281 281 281 281 281 281 281 281 281 281 281 281 281 281 280 280 280 280 279 279 279 278 278 278 278 278 277 277 276 276 276 275 275 275 274 274 273 273 272 272 272 272 271 271 271 271 270 270 270 270 270 270 270 269 269 269 268 268 268 267 267 267 267 266 266 266 266 265 265 265 265 264 264
269 269 270 272 273 274 275 276 277 278 279 279 280 281 282 282 282 282 281 281 280 280 280 280 280 281 281 282 282 282 282 282 282 282 282 281 281 280 280 280 280 279 279 279 278 278 278 278 277 277 277 277 277 276 276 276 276 275 275 275 274 274 273 273 273 273 272 272 272 272 271 271 271 270 270 270 270 270 269 269 269 268 268 268 267 267 267 266 266 266 265 265 265 264 264 264 264
271 271 272 273 275 277 278 279 280 280 281 282 283 283 282 282 281 281 281 280 281 281 282 282 282 282 282 282 283 283 283 283 283 283 283 282 282 281 281 280 280 280 280 279 279 279 279 279 279 278 278 278 278 278 278 277 277 277 276 276 276 275 275 274 274 274 273 273 273 272 272 272 271 271 271 270 270 270 269 269 269 268 268 268 267 267 267 266 266 265 265 265 265 264 264 264 263
273 274 275 276 277 278 279 280 280 281 282 282 282 282 282 282 282 281 281 281 282 282 283 283 283 283 283 283 283 284 284 284 284 284 284 283 283 283 282 282 281 281 281 280 280 280 280 280 280 280 279 279 279 279 279 278 278 277 277 277 276 276 276 275 274 274 274 273 273 273 273 272 272 272 271 271 271 270 270 270 269 269 269 268 268 267 267 267 266 266 265 265 264 264 264 264 263
277 278 279 280 279 279 280 280 281 281 281 282 282 282 283 283 282 282 282 283 283 283 283 283 284 284 284 284 284 285 285 285 285 285 285 285 285 284 284 284 284 283 283 283 282 282 281 281 281 281 280 280 280 279 279 279 279 278 278 277 277 277 276 276 275 275 274 274 274 273 273 273 273 272 272 272 271 271 271 270 270 270 269 269 269 268 268 267 267 266 266 265 265 264 264 263 263
277 279 280 281 282 283 283 283 284 284 283 283 283 283 283 283 282 282 282 282 283 283 283 284 285 285 285 285 286 286 286 286 286 286 286 286 286 286 286 286 285 285 284 284 284 283 283 282 282 282 281 281 281 280 280 280 280 280 279 279 278 278 278 277 277 277 276 276 275 275 274 274 274 274 273 273 272 272 271 271 270 270 270 269 269 269 268 268 267 267 266 266 265 265 264 264 263
277 279 281 283 284 285 287 287 287 286 285 285 284 284 284 283 282 282 283 283 284 284 285 286 286 287 287 287 287 287 287 287 287 287 287 286 286 286 286 286 286 286 285 285 285 285 284 284 284 284 283 283 283 282 282 282 282 282 281 281 281 280 280 280 280 279 279 279 278 277 277 276 276 276 275 274 274 274 273 272 272 271 270 270 269 269 268 268 267 267 266 266 265 265 265 264 263
280 282 284 286 286 287 288 288 287 286 286 286 286 286 286 285 285 285 286 286 286 287 287 288 288 288 288 287 287 287 287 287 287 287 286 286 286 286 286 286 286 286 287 287 287 287 287 287 287 286 286 286 286 285 285 285 284 284 284 283 283 283 282 282 282 281 281 281 280 279 279 278 278 277 277 276 276 275 275 274 274 273 272 271 270 270 269 268 267 267 266 266 265 265 265 264 264
285 286 288 289 289 289 289 288 288 288 288 289 289 289 289 289 289 289 289 289 289 288 288 288 288 287 287 287 287 287 287 288 288 287 287 287 287 288 288 288 288 288 288 289 289 289 289 288 288 288 288 288 287 287 287 286 286 286 286 285 285 285 284 283 283 282 282 282 281 280 280 279 278 278 277 277 277 276 276 275 275 274 273 273 272 271 270 269 268 267 267 266 265 265 264 264 264
288 289 290 289 289 289 289 290 290 291 292 292 292 292 292 291 291 291 290 290 289 289 289 289 289 289 289 289 289 289 289 289 289 289 290 290 290 291 291 291 291 291 291 291 291 290 290 290 290 289 289 289 289 288 288 288 288 287 287 287 286 286 285 285 284 284 283 283 282 282 281 280 280 279 278 278 277 277 276 276 275 275 274 273 273 272 271 270 270 269 268 267 266 265 264 264 263
290 290 290 290 290 290 291 291 292 293 294 294 294 293 292 292 291 291 290 290 290 290 290 291 291 291 291 291 290 291 291 291 292 292 292 293 293 294 294 294 294 293 293 293 293 292 292 292 292 291 291 291 290 290 289 289 289 288 288 288 287 287 286 286 285 285 284 284 283 283 282 282 281 281 280 279 279 278 277 277 276 276 275 274 273 272 272 271 270 270 269 268 267 267 266 265 263
288 289 290 291 291 292 293 293 294 294 294 293 292 291 291 291 291 291 292 292 292 292 292 292 292 292 292 292 292 293 294 295 295 295 296 296 296 296 295 295 295 295 295 294 294 294 294 293 293 293 292 292 291 291 290 290 289 289 288 288 287 287 287 286 286 285 285 285 284 284 283 283 283 282 282 281 280 280 279 279 278 277 276 275 274 273 272 271 270 270 269 268 268 267 266 266 265
291 292 293 294 295 295 296 295 294 294 293 292 291 291 292 292 293 293 293 293 293 293 293 293 293 294 294 294 296 297 298 298 299 299 298 298 298 298 297 297 297 297 297 296 296 295 295 294 294 294 293 293 292 292 291 291 290 290 289 288 288 287 287 286 286 285 285 285 285 285 284 284 284 283 283 282 281 281 281 280 280 279 279 278 276 275 274 272 271 270 269 268 267 267 266 266 265
299 299 299 299 299 298 297 296 294 294 293 293 294 294 294 295 295 295 295 295 294 295 295 295 296 296 297 299 300 301 302 302 302 301 300 299 299 299 299 299 299 299 299 298 298 297 296 296 296 295 295 295 294 294 293 293 292 291 290 289 289 288 287 287 286 286 285 285 285 285 285 284 284 284 284 283 283 282 282 281 281 281 280 280 278 277 275 274 272 271 270 269 268 267 266 265 265
303 302 302 302 302 302 301 299 298 298 298 298 299 299 299 299 299 299 299 299 300 300 300 300 300 300 302 303 304 305 305 304 302 301 301 301 302 302 302 301 301 300 300 299 299 298 298 297 297 296 296 296 296 295 295 294 293 292 292 291 290 290 289 288 288 287 287 286 286 286 285 285 285 285 285 284 284 284 283 283 282 282 282 281 280 279 277 275 274 272 270 269 268 267 266 265 265
306 306 306 306 306 306 306 304 304 304 304 305 306 306 307 307 307 307 307 307 307 307 306 306 307 307 308 308 307 306 304 303 302 302 303 303 304 303 303 302 302 301 301 300 300 299 299 298 298 297 297 297 297 296 296 295 295 294 294 293 293 293 292 292 291 290 289 289 288 287 287 286 286 286 285 285 285 284 284 284 283 283 283 282 281 280 278 276 274 273 271 270 268 267 266 265 264
311 310 310 310 310 310 309 309 309 310 311 312 314 316 316 317 316 315 315 315 314 314 314 315 314 313 311 309 307 306 305 304 305 306 306 306 306 305 304 304 304 303 303 302 301 301 300 300 299 299 299 299 298 298 298 297 297 297 296 295 295 295 294 294 293 292 291 291 290 289 288 288 287 287 287 286 286 285 285 284 284 284 283 283 282 281 279 277 275 273 271 270 268 267 266 264 264
315 314 313 313 313 313 313 313 314 315 318 322 325 326 325 326 326 324 323 323 323 323 322 321 318 314 310 308 307 307 307 308 308 309 309 308 308 307 307 307 306 306 305 304 304 303 303 303 302 302 302 301 300 300 300 300 300 300 299 298 298 297 296 296 296 295 294 292 291 290 290 289 289 289 289 288 288 287 287 286 286 285 285 284 283 281 279 277 275 273 271 270 268 267 266 265 264
317 317 317 317 316 316 317 318 319 322 327 331 333 334 335 338 336 333 333 331 328 327 324 320 316 313 311 310 310 310 311 311 311 311 310 309 309 309 309 309 309 309 308 308 307 307 307 306 306 305 304 303 303 303 303 303 302 302 302 301 301 300 300 299 298 298 296 295 294 293 292 292 291 291 291 291 291 290 289 289 288 287 286 285 283 281 279 277 275 273 272 270 269 268 267 266 265
320 321 320 319 319 321 323 324 326 330 334 336 337 339 343 348 344 339 338 333 328 326 322 318 316 315 315 314 314 314 314 314 312 311 311 311 312 312 312 312 312 312 311 311 311 310 310 309 308 307 306 306 305 305 305 304 304 303 303 303 303 302 302 301 300 299 298 297 297 296 295 295 295 294 294 294 293 292 292 291 290 289 287 285 283 281 279 277 275 274 273 272 271 270 269 268 267
324 323 322 323 326 328 328 330 333 335 337 339 341 342 346 352 348 342 339 334 329 326 323 321 320 320 319 319 319 318 317 316 315 315 316 316 316 316 316 316 315 315 314 314 313 312 311 311 310 309 308 307 307 307 306 306 305 305 305 305 304 304 304 303 302 301 301 300 299 299 298 298 297 297 297 296 295 295 294 292 291 289 287 285 282 280 278 276 275 274 273 273 272 271 271 270 269
326 325 326 330 332 332 332 334 336 337 339 342 343 342 345 349 347 343 342 338 334 332 329 328 327 325 324 324 324 323 322 321 321 321 321 321 321 321 320 319 318 318 317 316 315 314 313 313 313 311 310 310 309 309 308 308 307 307 307 307 307 306 306 306 305 304 303 303 302 301 300 300 299 299 298 298 297 296 295 293 291 289 286 283 281 279 277 275 275 274 274 273 273 273 272 272 271
329 330 333 335 335 334 334 336 339 340 340 341 340 339 341 344 343 343 342 340 338 336 334 332 330 329 328 327 326 324 324 323 323 323 322 321 321 320 319 318 317 317 316 315 315 314 314 313 313 313 312 312 311 310 310 309 309 309 309 308 308 308 308 308 307 306 305 304 303 302 301 301 300 300 299 298 297 296 294 292 290 287 285 282 280 278 277 275 275 274 274 274 274 274 274 273 273
333 335 336 335 334 334 335 337 340 341 338 337 336 334 336 339 337 338 338 337 336 335 332 330 329 328 327 325 324 324 323 322 322 321 320 319 318 317 316 316 315 314 314 313 313 313 313 313 313 313 313 313 312 311 311 310 310 309 309 309 309 309 308 308 307 306 305 304 303 302 302 301 301 300 299 298 297 295 293 291 288 286 284 282 280 278 277 276 275 275 275 275 275 275 275 275 274
334 333 333 332 332 333 334 335 336 337 337 334 332 330 330 334 334 334 334 332 331 330 327 326 326 326 325 324 323 323 322 321 321 320 319 317 316 315 314 314 314 313 313 313 313 313 313 313 313 313 313 312 312 311 311 311 310 310 310 310 310 309 309 308 307 306 305 305 305 304 304 303 302 301 300 298 296 294 292 289 287 285 284 282 281 279 278 277 276 276 276 276 276 276 276 275 275
332 332 332 332 332 332 333 333 333 334 335 333 332 329 325 330 334 331 330 329 328 327 325 324 324 324 324 323 322 321 320 319 319 318 316 315 314 314 314 314 314 314 314 314 314 314 314 314 313 313 313 312 312 312 311 311 311 311 311 311 310 310 309 309 308 308 308 308 307 306 306 305 303 302 300 298 296 294 291 289 287 286 284 282 281 280 279 278 277 277 277 276 276 276 275 275 274
334 333 333 333 333 333 332 333 332 332 335 334 333 329 322 325 333 331 329 329 327 326 324 323 323 323 323 321 320 319 318 317 316 316 315 314 314 314 314 314 314 315 315 315 315 314 313 313 313 313 313 313 313 313 312 312 311 312 312 311 311 310 310 310 310 311 311 310 309 308 307 306 304 303 301 299 297 295 293 291 289 287 285 283 282 281 280 279 278 277 277 276 276 275 274 274 273
335 335 334 334 334 334 333 333 333 332 334 335 334 331 320 321 331 331 327 328 325 324 322 321 321 321 321 320 318 317 316 316 315 315 315 315 314 315 315 315 316 316 315 315 315 314 314 314 314 314 314 314 314 314 313 312 312 312 312 312 312 311 312 312 313 313 313 312 311 310 308 307 305 304 302 300 298 296 294 292 290 288 286 284 283 281 280 279 278 277 276 276 275 274 273 272 272
337 336 335 335 334 335 334 334 333 331 333 335 335 334 321 319 328 330 325 326 325 322 320 318 318 319 319 318 316 316 315 315 315 315 315 315 315 315 315 316 316 316 316 315 315 315 315 315 315 315 315 315 315 314 313 313 313 313 313 313 313 313 314 315 315 315 314 313 312 311 309 308 306 305 303 301 299 297 295 293 291 289 287 285 284 282 281 279 278 277 276 275 274 273 272 271 271
338 336 336 334 333 335 334 334 334 331 332 333 334 339 325 317 327 330 324 325 325 323 320 317 316 317 317 317 316 315 316 315 315 315 315 316 315 316 316 316 316 316 316 316 316 316 317 317 317 316 316 315 315 314 314 314 314 314 315 315 315 315 316 317 317 316 315 314 313 312 310 309 307 306 304 302 300 298 296 294 292 290 288 286 284 283 281 280 278 277 275 274 273 272 271 271 270
337 337 336 335 333 335 335 334 333 330 331 330 331 341 331 317 326 330 322 323 324 323 321 317 316 317 316 316 316 315 316 315 316 316 316 316 316 316 317 316 316 316 316 317 317 317 318 318 317 317 316 316 315 315 315 315 316 316 316 316 316 317 318 318 318 317 316 315 314 312 311 310 308 307 305 303 301 299 297 295 293 291 289 287 285 283 281 280 278 277 275 274 273 272 271 271 270
337 336 336 336 333 334 333 332 332 329 330 327 326 337 336 319 324 329 322 321 323 322 321 317 316 316 315 315 315 315 315 315 316 316 316 316 316 316 317 316 316 316 317 317 317 318 318 318 317 317 316 316 316 316 316 317 318 318 318 318 318 319 319 319 319 318 317 316 315 313 312 311 310 308 306 304 302 300 298 296 294 292 289 287 285 283 281 280 278 277 275 274 273 272 272 271 271
337 335 336 336 333 331 330 330 330 327 328 325 321 331 337 323 322 327 321 319 321 321 319 317 316 315 314 314 314 314 315 315 315 316 316 316 316 316 317 317 317 317 317 318 318 318 318 318 317 317 317 316 316 317 318 319 320 320 320 319 319 320 321 321 320 319 318 317 316 315 314 313 311 309 307 305 303 301 298 296 294 292 289 287 285 283 281 280 278 276 275 274 273 272 272 272 272